Location: Putah Creek Observatory
(38.7021°N, 122.3865°W)
Time: 13:20:35
(UTC-07:00)

Daily predictions for brighter satellites

Satellite Brightness Start Highest point End
(mag) Time Altitude Azimuth Time Altitude Azimuth Time Altitude Azimuth
deb Kosmos-1763 4.2 21:09:36 10° S 21:13:25 65° ESE 21:17:19 10° NNE
Cosmos 1743 Rocket 3.8 21:09:35 10° SSE 21:13:54 50° E 21:18:14 10° NNE
GPS 2-04 Rocket1 3.4 21:11:11 10° W 21:15:23 46° SSW 21:19:30 10° ESE
SJ-11-01 4.3 21:11:58 10° SSE 21:16:38 72° ENE 21:21:22 10° N
deb Chang Zheng 4 3.6 21:15:47 10° NNE 21:20:06 63° ESE 21:24:23 10° S
Cosmos 1500 Rocket 4.1 21:17:00 10° SSE 21:21:02 39° E 21:25:09 10° NNE
Cosmos 2360 4.4 21:16:13 10° NNW 21:21:57 76° WSW 21:27:39 10° SSE
Cosmos 540 Rocket 3.8 21:19:31 10° NNW 21:24:41 69° WSW 21:29:47 10° S
Cosmos 2221 3.9 21:21:45 10° NNW 21:25:43 39° W 21:29:42 10° SSW
Cosmos 1378 4.0 21:23:02 10° SSW 21:26:43 54° W 21:30:24 10° N
AVUM R/B 4.4 21:30:15 13° ESE 21:30:15 13° ESE 21:31:22 10° ENE
USA 229 DEB 3.8 21:26:46 10° SSW 21:33:29 56° ESE 21:40:16 10° NE
USA 229 3.8 21:26:53 10° SSW 21:33:35 56° ESE 21:40:22 10° NE
Delta 2 Rocket 4.1 21:33:10 10° SSW 21:35:55 22° SSE 21:37:41 15° ESE
ATLAS 5 CENTAUR R/B 4.0 21:32:59 10° WSW 21:37:20 31° NW 21:41:59 10° NNE
BREEZE M DEB (TANK) 3.1 21:36:11 10° W 21:37:50 21° SSW 21:39:43 13° SSE
CZ-4 SHROUD 3.9 21:35:58 15° SE 21:38:17 39° ENE 21:41:15 10° N
Cosmos 968 Rocket 3.5 21:33:23 10° SSW 21:38:34 89° WNW 21:43:49 10° NNE
USA 245 4.3 21:42:13 14° E 21:43:11 16° ENE 21:44:56 10° NNE
ATLAS CENTAUR R/B 1.9 21:40:01 10° NW 21:44:28 58° WSW 21:48:06 13° SSE
YAOGAN 6 3.6 21:43:08 16° SE 21:45:27 32° ENE 21:48:44 10° N
Terra 3.9 21:47:26 10° E 21:49:37 13° ENE 21:51:48 10° NE
Cosmos 1515 Rocket 3.5 21:45:14 10° N 21:49:42 81° E 21:53:42 12° S
DELTA 2 R/B (1) 3.6 21:44:53 10° W 21:50:28 82° N 21:56:02 10° E
Envisat 3.0 21:48:02 10° SSE 21:53:07 83° WSW 21:58:14 10° NNW
Cosmos 405 3.5 21:52:30 10° N 21:56:01 45° ENE 21:57:59 22° SE
Cosmos 1441 Rocket 3.5 21:54:06 10° SSW 21:57:52 65° W 22:01:38 10° N
ARGOS 3.8 21:56:06 18° SE 21:59:45 41° ENE 22:04:47 10° N
CZ-2C R/B 3.0 22:00:16 10° WSW 22:01:01 12° W 22:01:46 10° WNW
MetOp-A 4.1 21:57:11 16° SSE 22:01:34 75° ENE 22:06:55 10° N
Cosmos 2266 Rocket 4.0 21:56:02 10° S 22:02:21 77° E 22:08:35 10° N
Cosmos 2219 3.9 21:58:40 14° SSE 22:02:55 35° ESE 22:08:04 10° NE
Cosmos 1553 Rocket 4.5 21:57:32 10° NNW 22:03:51 62° W 22:10:03 10° S
ERS-1 Rocket 4.3 22:00:48 10° SSW 22:05:22 35° W 22:10:00 10° NNW
Cosmos 1939 Rocket 3.9 22:01:40 10° S 22:05:26 41° W 22:09:10 10° NNW
Cosmos 1777 Rocket 4.1 22:04:08 10° SSW 22:09:24 78° WNW 22:14:41 10° NNE
Cosmos 1437 2.9 22:08:45 28° SSE 22:10:09 52° E 22:13:23 10° NNE
Cosmos 2322 4.0 22:06:30 10° NNW 22:12:08 55° ENE 22:15:33 23° SE
H-2A R/B 3.3 22:12:25 19° ESE 22:15:05 29° ENE 22:19:41 10° N
Cosmos 1726 3.7 22:13:13 10° NNE 22:16:10 21° ENE 22:16:52 20° E
Meteor 2-20 Rocket 4.5 22:10:22 10° S 22:16:32 89° WNW 22:22:43 10° N
Cosmos 1805 Rocket 4.0 22:14:46 26° SE 22:16:46 42° E 22:20:59 10° NNE
Cosmos 1908 3.3 22:12:56 10° NNW 22:16:50 74° W 22:19:15 22° S
Cosmos 2151 2.8 22:14:56 18° S 22:17:57 79° E 22:22:10 10° N
SPOT 5 3.3 22:15:46 15° S 22:19:19 55° W 22:23:56 10° NNW
Cosmos 2322 Rocket 3.1 22:14:26 10° NW 22:19:43 43° WSW 22:24:17 13° S
Cosmos 1151 Rocket 3.1 22:19:12 10° NNW 22:23:30 73° W 22:26:10 23° S
OE (NEXTSAT) 4.5 22:22:36 10° WNW 22:26:11 73° NNE 22:27:27 37° ESE
SPOT 1/Viking Rocket 3.5 22:23:43 24° SSE 22:26:52 88° ENE 22:32:03 10° NNW
Meteor 1-11 4.5 22:24:25 24° SSE 22:27:39 51° E 22:33:12 10° NNE
SL-16 R/B 3.3 22:23:06 10° NW 22:28:21 39° WSW 22:32:41 14° SSW
NOAA 11 4.1 22:27:46 27° SSE 22:30:49 75° ENE 22:36:17 10° N
Cosmos 2360 Rocket 2.1 22:25:43 10° NNW 22:31:24 82° ENE 22:34:21 30° SSE
H-2A R/B 4.3 22:29:30 10° SW 22:32:59 22° W 22:36:31 10° NW
Cosmos 1707 Rocket 3.7 22:32:01 10° N 22:36:17 54° E 22:37:34 39° SE
Cosmos 1437 Rocket 4.2 22:33:22 10° NNW 22:36:46 32° W 22:39:13 16° SSW
Nadezhda 2 Rocket 4.5 22:32:17 15° S 22:37:35 85° W 22:43:43 10° N
Cosmos 1680 Rocket 3.4 22:32:48 10° NNW 22:38:04 87° ENE 22:40:30 33° SSE
Cosmos 1666 Rocket 3.7 22:37:19 39° SSE 22:38:36 54° E 22:42:55 10° NNE
Cosmos 1674 4.2 22:36:18 10° SW 22:39:47 34° WNW 22:43:20 10° NNW
Cosmos 923 Rocket 4.2 22:35:46 10° NNW 22:40:56 66° WSW 22:43:34 29° S
NOSS 3-1 (C) 3.4 22:37:45 18° S 22:42:02 56° ESE 22:48:13 10° NE
CZ-4C R/B 2.9 22:46:07 61° SE 22:46:34 71° ENE 22:50:02 10° N
Cosmos 2150 Rocket 4.3 22:45:49 36° SSE 22:47:35 49° ESE 22:52:51 10° NNE
Cosmos 1300 2.6 22:44:53 10° N 22:48:44 76° E 22:49:23 58° SSE
DMSP B5D2-2 4.3 22:44:10 10° NNE 22:49:14 49° E 22:50:41 39° SE
Cosmos 1898 Rocket 3.6 22:50:22 40° SSE 22:51:46 51° ESE 22:56:47 10° NNE
Cosmos 1626 4.1 22:53:56 17° ENE 22:53:56 17° ENE 22:55:37 10° NE
Cosmos 2058 3.2 22:52:13 31° SSW 22:54:01 64° W 22:58:05 10° N
Cosmos 2227 Rocket 3.4 22:54:43 23° E 22:54:43 23° E 22:58:49 10° NE
SL-08 RB Rocket 3.8 22:52:50 38° S 22:54:28 68° WSW 22:58:56 10° NNW
Meteor 2-11 Rocket 4.4 22:50:38 10° N 22:56:49 86° E 22:59:37 35° S
Meteor 1-4 Rocket 3.2 22:53:42 10° N 22:57:18 43° ENE 22:57:18 43° ENE
Cosmos 2333 Rocket 3.7 22:54:04 10° N 22:58:52 26° ENE 23:01:13 20° E
SL-16 R/B 4.5 23:03:50 10° NNE 23:06:10 12° NE 23:08:31 10° ENE
DELTA 2 DEB (DPAF) 4.3 23:04:57 45° SSW 23:06:12 66° WSW 23:10:40 10° NNW
Cosmos 2242 Rocket 3.5 23:03:54 10° N 23:08:22 73° E 23:09:01 61° SE
COSMOS 2428 2.6 23:05:01 10° NNW 23:10:43 83° ENE 23:12:26 47° SSE
Landsat 7 4.0 23:09:32 44° SSW 23:10:54 66° WSW 23:15:39 10° NNW
Cosmos 1455 3.5 23:08:30 10° NNE 23:11:23 28° ENE 23:11:23 28° ENE
H-2A R/B 4.4 23:07:05 10° SW 23:12:15 43° SSE 23:44:28 10° E
IGS 5A 3.3 23:13:11 72° SE 23:13:34 83° ENE 23:17:45 10° N
Spot 4 3.8 23:15:50 57° SE 23:16:44 76° ENE 23:21:36 10° N
USA 32 4.0 23:12:46 10° N 23:18:03 85° W 23:19:30 50° S
Cosmos 2297 Rocket 3.3 23:22:46 27° E 23:22:46 27° E 23:26:53 10° NE
SeaSat 1 3.5 23:21:10 29° E 23:22:26 34° ENE 23:26:52 10° N
SL-14 R/B 4.4 23:24:33 33° WSW 23:25:32 39° WNW 23:29:18 10° N
Terra 2.0 23:25:53 54° SSW 23:26:46 66° WSW 23:31:31 10° NNW
Cosmos 1703 3.3 23:26:54 72° W 23:26:54 72° W 23:30:49 10° N
NOSS 0 Rocket 4.3 23:21:39 10° NNW 23:27:39 52° ENE 23:29:27 40° ESE
Cosmos 2237 4.4 23:26:43 10° NNW 23:32:22 62° WSW 23:33:44 48° SSW
Cosmos 292 Rocket 3.6 23:28:32 10° NNW 23:33:19 79° ENE 23:33:39 74° ESE
Cosmos 1862 Rocket 3.7 23:30:04 10° N 23:34:13 61° ENE 23:34:13 61° ENE
CARTOSAT-1 4.1 23:34:37 44° WSW 23:35:03 46° W 23:39:13 10° NNW
Cosmos 2219 Rocket 2.3 23:29:28 10° NNW 23:35:03 65° ENE 23:36:07 53° ESE
DELTA 2 R/B (1) 3.5 23:31:25 10° W 23:36:52 60° SSW 23:37:02 60° SSW
Cosmos 1271 Rocket 3.2 23:33:27 10° NNW 23:36:55 55° WNW 23:36:55 55° WNW
Cosmos 1633 Rocket 4.4 23:40:30 27° WSW 23:41:54 33° WNW 23:45:53 10° NNW
GEOS 3 Rocket 4.4 23:41:20 34° E 23:42:54 43° NE 23:47:47 10° NNW
NOSS 3-1 (A) 3.6 23:39:49 22° SW 23:43:48 70° NW 23:50:18 10° NNE
Cosmos 1980 3.9 23:41:26 10° NNW 23:47:01 58° ENE 23:47:57 51° ESE
BREEZE-M DEB (TANK) 4.0 23:49:03 10° NW 23:50:36 32° N 23:50:36 32° N
Cosmos 1726 4.2 23:48:33 10° NW 23:51:25 21° W 23:51:33 21° W
H-2A R/B 3.2 23:53:03 30° SW 23:54:20 34° W 23:59:13 10° NNW
